TimeCEST,TemperatureF,Dew PointF,Humidity,Sea Level PressureIn,VisibilityMPH,Wind Direction,Wind SpeedMPH,Gust SpeedMPH,PrecipitationIn,Events,Conditions,WindDirDegrees,DateUTC
12:00 AM,80.6,73.4,79,30.01,6.2,Calm,Calm,-,N/A,,Partly Cloudy,0,2013-08-05 22:00:00
12:30 AM,78.8,73.4,83,30.01,6.2,Calm,Calm,-,N/A,,Partly Cloudy,0,2013-08-05 22:30:00
1:00 AM,77.0,71.6,83,30.01,6.2,Calm,Calm,-,N/A,,Partly Cloudy,0,2013-08-05 23:00:00
1:30 AM,77.0,69.8,78,30.01,6.2,NNE,2.3,-,N/A,,Partly Cloudy,20,2013-08-05 23:30:00
2:00 AM,78,78,99,30.01,19,North,5.8,,,,Scattered Clouds,0,2013-08-06 00:00:00
2:00 AM,78.8,71.6,78,30.01,6.2,North,4.6,-,N/A,,Partly Cloudy,360,2013-08-06 00:00:00
2:30 AM,77.0,69.8,78,30.01,6.2,North,2.3,-,N/A,,Partly Cloudy,10,2013-08-06 00:30:00
3:00 AM,77.0,68.0,74,29.98,6.2,NNW,5.8,-,N/A,,Partly Cloudy,330,2013-08-06 01:00:00
3:30 AM,77.0,68.0,74,29.98,6.2,NW,6.9,-,N/A,,Partly Cloudy,320,2013-08-06 01:30:00
4:00 AM,77.0,66.2,69,29.98,6.2,NNW,8.1,-,N/A,,Partly Cloudy,340,2013-08-06 02:00:00
4:30 AM,77.0,66.2,69,29.95,6.2,NNW,4.6,-,N/A,,Partly Cloudy,340,2013-08-06 02:30:00
5:00 AM,77.0,66.2,69,29.98,6.2,NW,4.6,-,N/A,,Partly Cloudy,320,2013-08-06 03:00:00
5:30 AM,77.0,64.4,65,29.98,6.2,North,5.8,-,N/A,,Partly Cloudy,350,2013-08-06 03:30:00
6:00 AM,75.2,62.6,65,29.98,6.2,NNW,4.6,-,N/A,,Partly Cloudy,340,2013-08-06 04:00:00
6:30 AM,75.2,64.4,69,29.98,6.2,NNW,5.8,-,N/A,,Partly Cloudy,330,2013-08-06 04:30:00
7:00 AM,75.2,64.4,69,29.98,6.2,NNW,6.9,-,N/A,,Partly Cloudy,340,2013-08-06 05:00:00
7:30 AM,73.4,64.4,73,29.98,6.2,NNW,5.8,-,N/A,,Partly Cloudy,340,2013-08-06 05:30:00
8:00 AM,75,72,87,29.99,16,North,9.2,,,,Partly Cloudy,0,2013-08-06 06:00:00
8:00 AM,75.2,64.4,69,29.98,6.2,NNW,5.8,-,N/A,,Scattered Clouds,330,2013-08-06 06:00:00
8:30 AM,75.2,64.4,69,29.98,6.2,NNW,6.9,-,N/A,,Partly Cloudy,330,2013-08-06 06:30:00
9:00 AM,78.8,64.4,61,29.98,6.2,ENE,10.4,-,N/A,,Scattered Clouds,60,2013-08-06 07:00:00
9:30 AM,80.6,73.4,79,29.98,6.2,NE,12.7,-,N/A,,Partly Cloudy,50,2013-08-06 07:30:00
10:00 AM,82.4,71.6,70,29.98,6.2,NE,12.7,-,N/A,,Partly Cloudy,50,2013-08-06 08:00:00
10:30 AM,82.4,73.4,74,29.98,6.2,NE,12.7,-,N/A,,Scattered Clouds,50,2013-08-06 08:30:00
11:00 AM,82.4,71.6,70,29.98,6.2,ENE,15.0,-,N/A,,Partly Cloudy,60,2013-08-06 09:00:00
11:30 AM,84.2,71.6,66,29.98,6.2,ENE,15.0,-,N/A,,Scattered Clouds,60,2013-08-06 09:30:00
12:00 PM,84.2,73.4,70,29.98,6.2,ENE,13.8,-,N/A,,Scattered Clouds,70,2013-08-06 10:00:00
12:30 PM,84.2,73.4,70,29.98,6.2,East,12.7,-,N/A,,Scattered Clouds,80,2013-08-06 10:30:00
1:00 PM,84.2,73.4,70,29.98,6.2,East,11.5,-,N/A,,Partly Cloudy,100,2013-08-06 11:00:00
1:30 PM,86.0,71.6,62,29.95,6.2,East,11.5,-,N/A,,Scattered Clouds,80,2013-08-06 11:30:00
2:00 PM,85,75,65,29.96,12,East,9.2,,,,Partly Cloudy,100,2013-08-06 12:00:00
2:00 PM,84.2,73.4,70,29.95,6.2,East,9.2,-,N/A,,Scattered Clouds,80,2013-08-06 12:00:00
2:30 PM,86.0,73.4,66,29.95,6.2,ENE,11.5,-,N/A,,Partly Cloudy,70,2013-08-06 12:30:00
3:00 PM,86.0,73.4,66,29.92,6.2,East,11.5,-,N/A,,Partly Cloudy,80,2013-08-06 13:00:00
3:30 PM,84.2,73.4,70,29.92,6.2,East,10.4,-,N/A,,Partly Cloudy,90,2013-08-06 13:30:00
4:00 PM,84.2,73.4,70,29.92,6.2,East,9.2,-,N/A,,Partly Cloudy,100,2013-08-06 14:00:00
4:30 PM,86.0,73.4,66,29.92,6.2,East,9.2,-,N/A,,Partly Cloudy,100,2013-08-06 14:30:00
5:00 PM,84.2,73.4,70,29.89,6.2,East,9.2,-,N/A,,Partly Cloudy,90,2013-08-06 15:00:00
5:30 PM,84.2,75.2,74,29.89,6.2,East,9.2,-,N/A,,Partly Cloudy,100,2013-08-06 15:30:00
6:00 PM,84.2,73.4,70,29.89,6.2,East,8.1,-,N/A,,Partly Cloudy,80,2013-08-06 16:00:00
6:30 PM,84.2,75.2,74,29.86,6.2,ENE,10.4,-,N/A,,Partly Cloudy,70,2013-08-06 16:30:00
7:00 PM,84.2,75.2,74,29.86,6.2,East,8.1,-,N/A,,Partly Cloudy,80,2013-08-06 17:00:00
7:30 PM,82.4,75.2,79,29.86,6.2,East,8.1,-,N/A,,Partly Cloudy,80,2013-08-06 17:30:00
8:00 PM,81,77,83,29.86,7,ENE,9.2,,,,Partly Cloudy,60,2013-08-06 18:00:00
8:00 PM,82.4,75.2,79,29.86,6.2,ENE,10.4,-,N/A,,Scattered Clouds,70,2013-08-06 18:00:00
8:30 PM,80.6,75.2,84,29.83,6.2,ENE,8.1,-,N/A,,Scattered Clouds,70,2013-08-06 18:30:00
9:00 PM,80.6,75.2,84,29.83,6.2,NE,8.1,-,N/A,,Scattered Clouds,50,2013-08-06 19:00:00
9:30 PM,80.6,75.2,84,29.83,6.2,ENE,5.8,-,N/A,,Scattered Clouds,70,2013-08-06 19:30:00
10:00 PM,80.6,75.2,84,29.86,6.2,NE,4.6,-,N/A,,Scattered Clouds,40,2013-08-06 20:00:00
10:30 PM,80.6,75.2,84,29.83,6.2,ENE,3.5,-,N/A,,Scattered Clouds,60,2013-08-06 20:30:00
11:00 PM,80.6,75.2,84,29.83,6.2,Calm,Calm,-,N/A,,Mostly Cloudy,0,2013-08-06 21:00:00
11:30 PM,80.6,75.2,84,29.86,6.2,Calm,Calm,-,N/A,,Scattered Clouds,0,2013-08-06 21:30:00